EB1AYW-13 Weather Reports


time (UTC)temp
F
wind
direction
speed
knots
gust
knots
rain 1hr
in
rain 24hr
in
rain mn
in
humidity
%
barometer
mb
20260507085749 101 0.0 0.0 0.00 0.00 0.00 18 1001.2
20260507084749 114 0.0 0.0 0.00 0.00 0.00 13 999.6
20260507083749 108 0.0 0.0 0.00 0.00 0.00 15 1000.3
20260507082749 111 0.0 0.0 0.00 0.00 0.00 14 999.8
20260507081749 104 0.0 0.0 0.00 0.00 0.00 17 1000.9
20260507080749 103 0.0 0.0 0.00 0.00 0.00 17 1001.1
20260507075749 97 0.0 0.0 0.00 0.00 0.00 19 1002.0
20260507074749 105 0.0 0.0 0.00 0.00 0.00 16 1001.0
20260507073749 103 0.0 0.0 0.00 0.00 0.00 17 1001.2
20260507072749 104 0.0 0.0 0.00 0.00 0.00 16 1001.1
20260507071749 101 0.0 0.0 0.00 0.00 0.00 18 1001.4
20260507070749 104 0.0 0.0 0.00 0.00 0.00 16 1000.9
20260507065749 103 0.0 0.0 0.00 0.00 0.00 17 1001.1
20260507064749 104 0.0 0.0 0.00 0.00 0.00 16 1001.0
20260507063749 109 0.0 0.0 0.00 0.00 0.00 14 1000.3
20260507062749 102 0.0 0.0 0.00 0.00 0.00 17 1001.3
20260507061749 94 0.0 0.0 0.00 0.00 0.00 20 1002.4
20260507060749 103 0.0 0.0 0.00 0.00 0.00 17 1001.1
20260507055749 103 0.0 0.0 0.00 0.00 0.00 17 1001.2
20260507054749 103 0.0 0.0 0.00 0.00 0.00 17 1001.0
20260507053749 104 0.0 0.0 0.00 0.00 0.00 16 1000.9
20260507052749 104 0.0 0.0 0.00 0.00 0.00 16 1000.8
20260507051749 92 0.0 0.0 0.00 0.00 0.00 22 1002.4
20260507050750 91 0.0 0.0 0.00 0.00 0.00 22 1002.5
20260507045749 93 0.0 0.0 0.00 0.00 0.00 22 1002.3
20260507044749 94 0.0 0.0 0.00 0.00 0.00 21 1002.3
20260507043749 98 0.0 0.0 0.00 0.00 0.00 19 1001.8
20260507042749 93 0.0 0.0 0.00 0.00 0.00 21 1002.3
20260507041749 102 0.0 0.0 0.00 0.00 0.00 17 1001.2
20260507040749 93 0.0 0.0 0.00 0.00 0.00 21 1002.6
20260507035749 107 0.0 0.0 0.00 0.00 0.00 16 1000.9
20260507034749 103 0.0 0.0 0.00 0.00 0.00 17 1001.4
20260507033749 97 0.0 0.0 0.00 0.00 0.00 19 1002.3
20260507032749 101 0.0 0.0 0.00 0.00 0.00 18 1001.8
20260507031749 101 0.0 0.0 0.00 0.00 0.00 18 1001.8
20260507030749 95 0.0 0.0 0.00 0.00 0.00 20 1002.7
20260507025749 107 0.0 0.0 0.00 0.00 0.00 16 1000.9
20260507024749 105 0.0 0.0 0.00 0.00 0.00 17 1001.3
20260507023749 104 0.0 0.0 0.00 0.00 0.00 17 1001.5
20260507022749 100 0.0 0.0 0.00 0.00 0.00 19 1001.9
20260507021749 95 0.0 0.0 0.00 0.00 0.00 21 1002.8
20260507020749 96 0.0 0.0 0.00 0.00 0.00 21 1002.8
20260507015749 95 0.0 0.0 0.00 0.00 0.00 21 1002.7
20260507014749 95 0.0 0.0 0.00 0.00 0.00 21 1003.0
20260507013749 99 0.0 0.0 0.00 0.00 0.00 19 1002.3
20260507012749 100 0.0 0.0 0.00 0.00 0.00 19 1002.1
20260507011749 95 0.0 0.0 0.00 0.00 0.00 21 1003.0
20260507010749 93 0.0 0.0 0.00 0.00 0.00 22 1003.2
20260507005749 92 0.0 0.0 0.00 0.00 0.00 23 1003.4
20260507004749 93 0.0 0.0 0.00 0.00 0.00 22 1003.3
20260507003749 93 0.0 0.0 0.00 0.00 0.00 22 1003.3
20260507002749 95 0.0 0.0 0.00 0.00 0.00 21 1003.0
20260507001749 93 0.0 0.0 0.00 0.00 0.00 23 1003.4
20260507000749 90 0.0 0.0 0.00 0.00 0.00 24 1003.7
20260506235749 90 0.0 0.0 0.00 0.00 0.00 24 1003.8
20260506234749 96 0.0 0.0 0.00 0.00 0.00 20 1002.8
20260506233749 95 0.0 0.0 0.00 0.00 0.00 21 1003.1
20260506232749 94 0.0 0.0 0.00 0.00 0.00 21 1003.2
20260506231749 106 0.0 0.0 0.00 0.00 0.00 15 1001.5
20260506230749 100 0.0 0.0 0.00 0.00 0.00 17 1002.4
20260506225749 103 0.0 0.0 0.00 0.00 0.00 16 1001.6
20260506224749 104 0.0 0.0 0.00 0.00 0.00 16 1001.6
20260506223749 103 0.0 0.0 0.00 0.00 0.00 16 1001.6
20260506222749 96 0.0 0.0 0.00 0.00 0.00 18 1002.6
20260506221749 102 0.0 0.0 0.00 0.00 0.00 16 1001.7
20260506220749 94 0.0 0.0 0.00 0.00 0.00 20 1002.9
20260506215749 97 0.0 0.0 0.00 0.00 0.00 18 1002.4
20260506214749 97 0.0 0.0 0.00 0.00 0.00 18 1002.4
20260506213749 95 0.0 0.0 0.00 0.00 0.00 19 1002.6
20260506212749 95 0.0 0.0 0.00 0.00 0.00 18 1002.6
20260506211749 110 0.0 0.0 0.00 0.00 0.00 12 1000.3
20260506210749 113 0.0 0.0 0.00 0.00 0.00 11 999.8
20260506205749 110 0.0 0.0 0.00 0.00 0.00 11 1000.0
20260506204749 112 0.0 0.0 0.00 0.00 0.00 11 999.8
20260506203749 114 0.0 0.0 0.00 0.00 0.00 11 999.5
20260506202749 112 0.0 0.0 0.00 0.00 0.00 11 999.7
20260506201749 110 0.0 0.0 0.00 0.00 0.00 11 999.9
20260506200749 112 0.0 0.0 0.00 0.00 0.00 11 999.6
20260506195749 109 0.0 0.0 0.00 0.00 0.00 12 1000.0
20260506194749 106 0.0 0.0 0.00 0.00 0.00 13 1000.3
20260506193749 109 0.0 0.0 0.00 0.00 0.00 12 999.8
20260506192749 111 0.0 0.0 0.00 0.00 0.00 11 999.5
20260506191749 112 0.0 0.0 0.00 0.00 0.00 11 999.3
20260506190749 107 0.0 0.0 0.00 0.00 0.00 12 999.9
20260506185749 110 0.0 0.0 0.00 0.00 0.00 11 999.5
20260506184749 109 0.0 0.0 0.00 0.00 0.00 12 999.6
20260506183749 108 0.0 0.0 0.00 0.00 0.00 11 999.6
20260506182749 105 0.0 0.0 0.00 0.00 0.00 12 1000.2
20260506181749 112 0.0 0.0 0.00 0.00 0.00 11 999.2
20260506180749 105 0.0 0.0 0.00 0.00 0.00 12 1000.3
20260506175749 107 0.0 0.0 0.00 0.00 0.00 12 1000.0
20260506174749 110 0.0 0.0 0.00 0.00 0.00 11 999.7
20260506173749 107 0.0 0.0 0.00 0.00 0.00 12 1000.1
20260506172749 110 0.0 0.0 0.00 0.00 0.00 11 999.7
20260506171749 107 0.0 0.0 0.00 0.00 0.00 12 1000.2
20260506170749 116 0.0 0.0 0.00 0.00 0.00 9 998.9
20260506165749 109 0.0 0.0 0.00 0.00 0.00 11 1000.0
20260506164749 117 0.0 0.0 0.00 0.00 0.00 9 998.8
20260506163749 110 0.0 0.0 0.00 0.00 0.00 10 999.8
20260506162749 111 0.0 0.0 0.00 0.00 0.00 10 999.7
20260506161749 115 0.0 0.0 0.00 0.00 0.00 9 999.1
20260506160749 117 0.0 0.0 0.00 0.00 0.00 8 998.9
20260506155749 114 0.0 0.0 0.00 0.00 0.00 10 999.4
20260506154749 111 0.0 0.0 0.00 0.00 0.00 10 999.8
20260506153749 114 0.0 0.0 0.00 0.00 0.00 9 999.6
20260506152749 104 0.0 0.0 0.00 0.00 0.00 11 1001.1
20260506151749 112 0.0 0.0 0.00 0.00 0.00 10 1000.2
20260506150749 114 0.0 0.0 0.00 0.00 0.00 9 1000.0
20260506145749 107 0.0 0.0 0.00 0.00 0.00 11 1000.9
20260506144749 103 0.0 0.0 0.00 0.00 0.00 12 1001.5
20260506143749 112 0.0 0.0 0.00 0.00 0.00 10 1000.5
20260506142749 101 0.0 0.0 0.00 0.00 0.00 13 1002.1
20260506141749 103 0.0 0.0 0.00 0.00 0.00 12 1001.9
20260506140749 103 0.0 0.0 0.00 0.00 0.00 12 1002.1
20260506135749 109 0.0 0.0 0.00 0.00 0.00 10 1001.3
20260506134749 107 0.0 0.0 0.00 0.00 0.00 11 1001.6
20260506133749 105 0.0 0.0 0.00 0.00 0.00 11 1002.0
20260506132749 114 0.0 0.0 0.00 0.00 0.00 9 1000.8
20260506131749 110 0.0 0.0 0.00 0.00 0.00 10 1001.5
20260506130749 107 0.0 0.0 0.00 0.00 0.00 11 1001.9
20260506125749 114 0.0 0.0 0.00 0.00 0.00 10 1001.1
20260506124750 107 0.0 0.0 0.00 0.00 0.00 11 1002.1
20260506123749 116 0.0 0.0 0.00 0.00 0.00 10 1001.1
20260506122749 116 0.0 0.0 0.00 0.00 0.00 9 1001.1
20260506121749 110 0.0 0.0 0.00 0.00 0.00 10 1002.1
20260506120749 102 0.0 0.0 0.00 0.00 0.00 13 1003.3
20260506115749 104 0.0 0.0 0.00 0.00 0.00 12 1003.2
20260506114749 103 0.0 0.0 0.00 0.00 0.00 13 1003.4
20260506113749 108 0.0 0.0 0.00 0.00 0.00 12 1002.9
20260506112749 109 0.0 0.0 0.00 0.00 0.00 11 1002.7
20260506111749 105 0.0 0.0 0.00 0.00 0.00 12 1003.5
20260506110749 113 0.0 0.0 0.00 0.00 0.00 10 1002.4
20260506105749 96 0.0 0.0 0.00 0.00 0.00 15 1004.8
20260506104749 106 0.0 0.0 0.00 0.00 0.00 12 1003.3
20260506103750 108 0.0 0.0 0.00 0.00 0.00 12 1003.0
20260506102749 105 0.0 0.0 0.00 0.00 0.00 13 1003.4
20260506101749 108 0.0 0.0 0.00 0.00 0.00 12 1003.1
20260506100749 103 0.0 0.0 0.00 0.00 0.00 13 1003.8
20260506095749 111 0.0 0.0 0.00 0.00 0.00 11 1002.6
20260506094749 114 0.0 0.0 0.00 0.00 0.00 10 1002.3
20260506093749 100 0.0 0.0 0.00 0.00 0.00 14 1004.4
20260506092749 102 0.0 0.0 0.00 0.00 0.00 14 1004.1
20260506091749 101 0.0 0.0 0.00 0.00 0.00 14 1004.3
20260506090749 99 0.0 0.0 0.00 0.00 0.00 14 1004.4